DLH694 EDDH-LBSF

Flight info

Callsign DLH694
Flight time 2h 10m
Altitude 39000
Route AMLUH2G AMLUH M852 DENIX DCT ZUCKA DCT ARMUT DCT LULAR DCT DEXIT DCT SASAL DCT BABIT/N0415F330 DCT RAVAK DCT NISVA
Aircraft A20N/M-SDE2E3FGHIRWXY/LB1

Departure

Time 2026-04-26 14:35
Airport Hamburg Helmut Schmidt Airport (EDDH)

Arrival

Time 2026-04-26 16:45
Airport Sofia Airport (LBSF)
Time Latitude Longitude Altitude Speed Heading
2026-04-26 14:09 53.63374 10.00339 51 ft 0 kts 86°
2026-04-26 14:27 53.63374 10.00331 51 ft 1 kts 86°
2026-04-26 14:28 53.63373 10.00321 49 ft 1 kts 86°
2026-04-26 14:28 53.63373 10.00309 47 ft 1 kts 86°
2026-04-26 14:28 53.63372 10.00296 48 ft 1 kts 86°
2026-04-26 14:28 53.63372 10.00283 47 ft 2 kts 86°
2026-04-26 14:29 53.63371 10.00258 45 ft 2 kts 101°
2026-04-26 14:29 53.63377 10.00235 46 ft 2 kts 132°
2026-04-26 14:29 53.63387 10.00220 70 ft 0 kts 173°
2026-04-26 14:31 53.63386 10.00221 70 ft 1 kts 173°
2026-04-26 14:31 53.63322 10.00236 50 ft 16 kts 174°
2026-04-26 14:31 53.63189 10.00251 48 ft 21 kts 175°
2026-04-26 14:31 53.63056 10.00248 45 ft 16 kts 205°
2026-04-26 14:32 53.62980 10.00170 46 ft 9 kts 213°
2026-04-26 14:32 53.62929 10.00110 45 ft 4 kts 215°
2026-04-26 14:32 53.62910 10.00089 42 ft 7 kts 213°
2026-04-26 14:32 53.62864 10.00033 45 ft 8 kts 222°
2026-04-26 14:33 53.62850 10.00012 45 ft 0 kts 226°
2026-04-26 14:33 53.62829 9.99949 45 ft 12 kts 258°
2026-04-26 14:33 53.62809 9.99821 43 ft 9 kts 272°
2026-04-26 14:33 53.62859 9.99747 46 ft 11 kts 332°
2026-04-26 14:34 53.63064 9.99574 47 ft 64 kts 333°
2026-04-26 14:34 53.63635 9.99082 49 ft 118 kts 333°
2026-04-26 14:34 53.64490 9.98339 50 ft 157 kts 332°
2026-04-26 14:34 53.65533 9.97407 229 ft 176 kts 332°
2026-04-26 14:35 53.66614 9.96464 845 ft 176 kts 333°
2026-04-26 14:35 53.67771 9.95581 1427 ft 189 kts 339°
2026-04-26 14:35 53.69071 9.95004 2273 ft 195 kts 352°
2026-04-26 14:35 53.70475 9.94859 2924 ft 213 kts 356°
2026-04-26 14:36 53.71974 9.94782 3911 ft 217 kts
2026-04-26 14:36 53.73440 9.95450 4607 ft 226 kts 30°
2026-04-26 14:36 53.74538 9.97335 4852 ft 226 kts 63°
2026-04-26 14:36 53.74845 9.99888 5092 ft 225 kts 98°
2026-04-26 14:37 53.74491 10.02532 5303 ft 240 kts 109°
2026-04-26 14:37 53.73805 10.05033 5291 ft 229 kts 123°
2026-04-26 14:37 53.72962 10.07335 5300 ft 244 kts 122°
2026-04-26 14:37 53.72041 10.09974 5296 ft 270 kts 121°
2026-04-26 14:38 53.70999 10.12542 5270 ft 269 kts 136°
2026-04-26 14:38 53.69406 10.14169 5401 ft 271 kts 165°
2026-04-26 14:38 53.67567 10.14924 6104 ft 274 kts 168°
2026-04-26 14:38 53.66337 10.15412 6797 ft 275 kts 168°
2026-04-26 14:39 53.63802 10.16416 7891 ft 285 kts 168°
2026-04-26 14:39 53.61842 10.17186 8720 ft 293 kts 168°
2026-04-26 14:39 53.59833 10.17972 9563 ft 300 kts 169°
2026-04-26 14:39 53.57774 10.18778 10365 ft 308 kts 169°
2026-04-26 14:40 53.55636 10.19613 10864 ft 327 kts 169°
2026-04-26 14:40 53.53374 10.20493 11166 ft 349 kts 169°
2026-04-26 14:40 53.50967 10.21428 11769 ft 359 kts 169°
2026-04-26 14:40 53.48527 10.22379 12580 ft 362 kts 169°
2026-04-26 14:41 53.46059 10.23340 13388 ft 366 kts 169°
2026-04-26 14:41 53.43562 10.24309 14168 ft 370 kts 169°
2026-04-26 14:41 53.41039 10.25288 14889 ft 374 kts 169°
2026-04-26 14:41 53.38496 10.26273 15625 ft 377 kts 169°
2026-04-26 14:42 53.35928 10.27266 16321 ft 381 kts 170°
2026-04-26 14:42 53.33381 10.28249 17020 ft 384 kts 170°
2026-04-26 14:42 53.30759 10.29258 17717 ft 388 kts 170°
2026-04-26 14:42 53.28107 10.30274 18388 ft 392 kts 170°
2026-04-26 14:43 53.25441 10.31295 19029 ft 395 kts 170°
2026-04-26 14:43 53.22757 10.32323 19643 ft 397 kts 170°
2026-04-26 14:43 53.20050 10.33360 20253 ft 400 kts 170°
2026-04-26 14:43 53.17330 10.34400 20854 ft 403 kts 170°
2026-04-26 14:44 53.14587 10.35446 21454 ft 406 kts 171°
2026-04-26 14:44 53.11821 10.36501 22047 ft 409 kts 171°
2026-04-26 14:44 53.09038 10.37560 22614 ft 412 kts 171°
2026-04-26 14:44 53.06232 10.38626 23205 ft 415 kts 171°
2026-04-26 14:45 53.03448 10.39684 23766 ft 418 kts 171°
2026-04-26 14:45 53.01528 10.40411 24050 ft 421 kts 171°
2026-04-26 14:45 52.97741 10.41845 24253 ft 422 kts 171°
2026-04-26 14:45 52.94879 10.42927 24289 ft 422 kts 171°
2026-04-26 14:46 52.92023 10.44005 24290 ft 421 kts 171°
2026-04-26 14:46 52.89164 10.45082 24291 ft 421 kts 171°
2026-04-26 14:46 52.86304 10.46159 24293 ft 421 kts 171°
2026-04-26 14:46 52.83450 10.47231 24291 ft 422 kts 171°
2026-04-26 14:47 52.80607 10.48297 24568 ft 425 kts 171°
2026-04-26 14:47 52.77720 10.49380 25112 ft 425 kts 171°
2026-04-26 14:47 52.74826 10.50462 25553 ft 429 kts 171°
2026-04-26 14:47 52.71913 10.51550 25969 ft 432 kts 171°
2026-04-26 14:48 52.68967 10.52649 26397 ft 434 kts 171°
2026-04-26 14:48 52.66013 10.53749 26816 ft 437 kts 171°
2026-04-26 14:48 52.63036 10.54858 27226 ft 440 kts 171°
2026-04-26 14:48 52.60043 10.55971 27614 ft 443 kts 171°
2026-04-26 14:49 52.57027 10.57090 27991 ft 445 kts 171°
2026-04-26 14:49 52.53996 10.58213 28357 ft 448 kts 171°
2026-04-26 14:49 52.50982 10.59329 28706 ft 451 kts 171°
2026-04-26 14:49 52.47917 10.60461 29059 ft 453 kts 171°
2026-04-26 14:50 52.44829 10.61601 29395 ft 456 kts 171°
2026-04-26 14:50 52.41721 10.62746 29710 ft 459 kts 171°
2026-04-26 14:50 52.38604 10.63893 30043 ft 461 kts 171°
2026-04-26 14:50 52.35468 10.65046 30369 ft 463 kts 171°
2026-04-26 14:51 52.32316 10.66203 30671 ft 465 kts 171°
2026-04-26 14:51 52.29148 10.67364 30985 ft 467 kts 171°
2026-04-26 14:51 52.26021 10.68508 31297 ft 468 kts 171°
2026-04-26 14:51 52.22844 10.69669 31663 ft 468 kts 171°
2026-04-26 14:52 52.19669 10.70828 32080 ft 466 kts 171°
2026-04-26 14:52 52.16508 10.71981 32506 ft 465 kts 171°
2026-04-26 14:52 52.13358 10.73127 32906 ft 463 kts 171°
2026-04-26 14:52 52.10218 10.74268 33305 ft 462 kts 171°
2026-04-26 14:53 52.07089 10.75403 33695 ft 460 kts 171°
2026-04-26 14:53 52.03969 10.76532 34067 ft 459 kts 171°
2026-04-26 14:53 52.00896 10.77643 34395 ft 458 kts 171°
2026-04-26 14:53 51.97792 10.78764 34669 ft 457 kts 171°
2026-04-26 14:54 51.94684 10.79884 34928 ft 457 kts 171°
2026-04-26 14:54 51.91579 10.81002 35176 ft 457 kts 171°
2026-04-26 14:54 51.88473 10.82118 35422 ft 457 kts 171°
2026-04-26 14:54 51.85371 10.83231 35662 ft 457 kts 171°
2026-04-26 14:55 51.82308 10.84329 35900 ft 456 kts 171°
2026-04-26 14:55 51.79166 10.85453 36124 ft 456 kts 171°
2026-04-26 14:55 51.76070 10.86560 36354 ft 456 kts 171°
2026-04-26 14:55 51.72971 10.87666 36585 ft 456 kts 171°
2026-04-26 14:56 51.69879 10.88773 36802 ft 455 kts 169°
2026-04-26 14:56 51.66872 10.90199 36993 ft 458 kts 162°
2026-04-26 14:56 51.63933 10.92219 37196 ft 460 kts 157°
2026-04-26 14:56 51.61047 10.94447 37396 ft 460 kts 157°
2026-04-26 14:57 51.58159 10.96671 37599 ft 460 kts 157°
2026-04-26 14:57 51.55275 10.98882 37783 ft 459 kts 157°
2026-04-26 14:57 51.52390 11.01083 37967 ft 459 kts 157°
2026-04-26 14:57 51.49504 11.03279 38140 ft 459 kts 157°
2026-04-26 14:58 51.46659 11.05437 38308 ft 459 kts 158°
2026-04-26 14:58 51.43774 11.07623 38470 ft 458 kts 158°
2026-04-26 14:58 51.40889 11.09806 38626 ft 458 kts 158°
2026-04-26 14:58 51.38006 11.11983 38784 ft 458 kts 158°
2026-04-26 14:59 51.35129 11.14154 38910 ft 458 kts 158°
2026-04-26 14:59 51.32247 11.16325 39035 ft 458 kts 158°
2026-04-26 14:59 51.29363 11.18495 39129 ft 458 kts 158°
2026-04-26 15:00 51.24566 11.22097 39272 ft 458 kts 158°
2026-04-26 15:00 51.17866 11.27115 39294 ft 458 kts 158°
2026-04-26 15:01 51.12097 11.31422 39289 ft 458 kts 158°
2026-04-26 15:01 51.06328 11.35717 39292 ft 458 kts 158°
2026-04-26 15:02 51.00555 11.40004 39292 ft 458 kts 158°
2026-04-26 15:02 50.94824 11.44248 39290 ft 457 kts 158°
2026-04-26 15:03 50.89047 11.48513 39290 ft 459 kts 158°
2026-04-26 15:03 50.83267 11.52770 39286 ft 458 kts 158°
2026-04-26 15:04 50.77485 11.57016 39288 ft 458 kts 158°
2026-04-26 15:04 50.71736 11.61227 39287 ft 458 kts 158°
2026-04-26 15:05 50.65946 11.65456 39285 ft 458 kts 158°
2026-04-26 15:05 50.60158 11.69672 39279 ft 458 kts 158°
2026-04-26 15:06 50.54372 11.73875 39273 ft 458 kts 158°
2026-04-26 15:06 50.48587 11.78066 39267 ft 458 kts 158°
2026-04-26 15:07 50.39950 11.84302 39261 ft 457 kts 158°
2026-04-26 15:07 50.34167 11.88463 39260 ft 457 kts 158°
2026-04-26 15:08 50.28382 11.92614 39259 ft 457 kts 158°
2026-04-26 15:08 50.22591 11.96759 39261 ft 457 kts 158°
2026-04-26 15:09 50.16902 12.00822 39265 ft 454 kts 158°
2026-04-26 15:09 50.11117 12.04938 39262 ft 459 kts 158°
2026-04-26 15:10 50.06291 12.08365 39262 ft 458 kts 158°
2026-04-26 15:10 49.99515 12.13166 39244 ft 458 kts 158°
2026-04-26 15:11 49.93746 12.17240 39232 ft 458 kts 158°
2026-04-26 15:11 49.87939 12.21330 39244 ft 459 kts 159°
2026-04-26 15:12 49.82120 12.25418 39238 ft 459 kts 159°
2026-04-26 15:12 49.76299 12.29499 39226 ft 458 kts 159°
2026-04-26 15:13 49.70726 12.34296 39226 ft 461 kts 147°
2026-04-26 15:13 49.65684 12.40351 39237 ft 463 kts 143°
2026-04-26 15:14 49.60659 12.46566 39239 ft 462 kts 143°
2026-04-26 15:14 49.55632 12.52727 39244 ft 462 kts 144°
2026-04-26 15:15 49.50588 12.58882 39236 ft 463 kts 144°
2026-04-26 15:15 49.45574 12.64983 39238 ft 463 kts 144°
2026-04-26 15:16 49.40518 12.71121 39239 ft 462 kts 144°
2026-04-26 15:16 49.35596 12.77451 39236 ft 464 kts 137°
2026-04-26 15:17 49.31876 12.83386 39242 ft 464 kts 135°
2026-04-26 15:17 49.26698 12.91703 39243 ft 464 kts 136°
2026-04-26 15:18 49.22227 12.98832 39228 ft 464 kts 136°
2026-04-26 15:18 49.17743 13.05957 39234 ft 465 kts 136°
2026-04-26 15:19 49.13253 13.13070 39240 ft 465 kts 136°
2026-04-26 15:19 49.08801 13.20105 39226 ft 463 kts 136°
2026-04-26 15:20 49.04319 13.27166 39220 ft 463 kts 136°
2026-04-26 15:20 48.99834 13.34214 39216 ft 463 kts 136°
2026-04-26 15:21 48.95354 13.41235 39214 ft 463 kts 136°
2026-04-26 15:21 48.90859 13.48258 39211 ft 462 kts 136°
2026-04-26 15:22 48.86405 13.55201 39209 ft 462 kts 136°
2026-04-26 15:22 48.81916 13.62178 39212 ft 462 kts 136°
2026-04-26 15:23 48.77427 13.69138 39209 ft 462 kts 136°
2026-04-26 15:23 48.73325 13.76658 39208 ft 464 kts 129°
2026-04-26 15:24 48.69425 13.84355 39210 ft 463 kts 129°
2026-04-26 15:24 48.65501 13.92059 39211 ft 463 kts 129°
2026-04-26 15:25 48.62213 13.98483 39216 ft 463 kts 130°
2026-04-26 15:25 48.57595 14.07474 39216 ft 464 kts 130°
2026-04-26 15:26 48.53635 14.15159 39217 ft 464 kts 130°
2026-04-26 15:26 48.49698 14.22776 39220 ft 464 kts 130°
2026-04-26 15:27 48.45726 14.30442 39214 ft 464 kts 130°
2026-04-26 15:27 48.41748 14.38097 39214 ft 464 kts 130°
2026-04-26 15:28 48.37771 14.45729 39209 ft 463 kts 130°
2026-04-26 15:28 48.33815 14.53299 39209 ft 463 kts 130°
2026-04-26 15:29 48.29829 14.60904 39198 ft 463 kts 130°
2026-04-26 15:30 48.21855 14.76055 39199 ft 463 kts 130°
2026-04-26 15:30 48.17854 14.83625 39199 ft 463 kts 130°
2026-04-26 15:31 48.11870 14.94908 39195 ft 463 kts 130°
2026-04-26 15:32 48.07179 15.03720 39190 ft 463 kts 130°
2026-04-26 15:32 48.01824 15.13744 39187 ft 463 kts 130°
2026-04-26 15:33 47.97825 15.21205 39187 ft 464 kts 130°
2026-04-26 15:33 47.93784 15.28724 39186 ft 464 kts 131°
2026-04-26 15:34 47.89742 15.36225 39192 ft 464 kts 131°
2026-04-26 15:34 47.85689 15.43723 39182 ft 465 kts 131°
2026-04-26 15:35 47.81632 15.51208 39179 ft 465 kts 131°
2026-04-26 15:35 47.77591 15.58644 39177 ft 466 kts 131°
2026-04-26 15:36 47.73513 15.66126 39180 ft 466 kts 131°
2026-04-26 15:36 47.69423 15.73612 39177 ft 466 kts 131°
2026-04-26 15:37 47.65337 15.81071 39177 ft 467 kts 131°
2026-04-26 15:37 47.61229 15.88547 39173 ft 467 kts 131°
2026-04-26 15:38 47.57146 15.95957 39175 ft 468 kts 131°
2026-04-26 15:38 47.53016 16.03431 39179 ft 470 kts 131°
2026-04-26 15:39 47.48876 16.10906 39176 ft 469 kts 131°
2026-04-26 15:39 47.46131 16.15849 39177 ft 470 kts 131°
2026-04-26 15:40 47.40595 16.25793 39184 ft 471 kts 131°
2026-04-26 15:40 47.36435 16.33239 39181 ft 471 kts 131°
2026-04-26 15:41 47.32258 16.40699 39187 ft 471 kts 131°
2026-04-26 15:41 47.28098 16.48119 39188 ft 471 kts 130°
2026-04-26 15:42 47.24056 16.55687 39183 ft 469 kts 129°
2026-04-26 15:42 47.20753 16.62001 39184 ft 468 kts 129°
2026-04-26 15:43 47.16761 16.69565 39188 ft 467 kts 129°
2026-04-26 15:44 47.10112 16.82055 39191 ft 467 kts 129°
2026-04-26 15:44 47.04781 16.92022 39184 ft 466 kts 129°
2026-04-26 15:45 46.98775 17.03211 39176 ft 465 kts 129°
2026-04-26 15:46 46.92764 17.14363 39173 ft 465 kts 130°
2026-04-26 15:46 46.89423 17.20540 39170 ft 465 kts 130°
2026-04-26 15:47 46.82737 17.32864 39173 ft 466 kts 130°
2026-04-26 15:48 46.78706 17.40269 39169 ft 466 kts 130°
2026-04-26 15:48 46.74670 17.47660 39167 ft 466 kts 130°
2026-04-26 15:49 46.70630 17.55042 39165 ft 466 kts 130°
2026-04-26 15:49 46.66578 17.62424 39174 ft 467 kts 130°
2026-04-26 15:50 46.62547 17.69749 39172 ft 467 kts 130°
2026-04-26 15:50 46.58477 17.77124 39170 ft 467 kts 130°
2026-04-26 15:51 46.54400 17.84494 39175 ft 468 kts 130°
2026-04-26 15:51 46.50328 17.91835 39167 ft 466 kts 130°
2026-04-26 15:52 46.46289 17.99097 39163 ft 466 kts 130°
2026-04-26 15:52 46.42216 18.06400 39165 ft 465 kts 130°
2026-04-26 15:53 46.38146 18.13679 39163 ft 465 kts 130°
2026-04-26 15:53 46.34070 18.20950 39161 ft 465 kts 130°
2026-04-26 15:54 46.29989 18.28211 39161 ft 465 kts 130°
2026-04-26 15:54 46.25906 18.35457 39163 ft 465 kts 130°
2026-04-26 15:55 46.21848 18.42638 39163 ft 465 kts 130°
2026-04-26 15:55 46.17758 18.49859 39158 ft 464 kts 130°
2026-04-26 15:56 46.13661 18.57072 39158 ft 464 kts 130°
2026-04-26 15:56 46.09564 18.64267 39151 ft 464 kts 130°
2026-04-26 15:57 46.05462 18.71454 39146 ft 464 kts 130°
2026-04-26 15:57 46.01385 18.78577 39145 ft 464 kts 130°
2026-04-26 15:58 45.97275 18.85740 39140 ft 464 kts 130°
2026-04-26 15:58 45.93076 18.92774 39142 ft 463 kts 135°
2026-04-26 15:59 45.88341 18.99009 39140 ft 462 kts 140°
2026-04-26 15:59 45.83546 19.05041 39139 ft 462 kts 140°
2026-04-26 16:00 45.78728 19.11125 39137 ft 462 kts 140°
2026-04-26 16:00 45.73906 19.17196 39142 ft 462 kts 140°
2026-04-26 16:01 45.69074 19.23260 39143 ft 462 kts 140°
2026-04-26 16:01 45.64275 19.29267 39141 ft 462 kts 140°
2026-04-26 16:02 45.59442 19.35303 39141 ft 462 kts 140°
2026-04-26 16:02 45.54598 19.41339 39144 ft 461 kts 140°
2026-04-26 16:03 45.49752 19.47361 39143 ft 463 kts 140°
2026-04-26 16:03 45.44932 19.53339 39137 ft 462 kts 140°
2026-04-26 16:04 45.40080 19.59340 39144 ft 462 kts 141°
2026-04-26 16:04 45.35221 19.65337 39137 ft 463 kts 141°
2026-04-26 16:05 45.30356 19.71327 39139 ft 463 kts 141°
2026-04-26 16:05 45.25514 19.77275 39139 ft 464 kts 141°
2026-04-26 16:06 45.20636 19.83253 39144 ft 464 kts 141°
2026-04-26 16:06 45.15737 19.89242 39146 ft 464 kts 141°
2026-04-26 16:07 45.10838 19.95218 39142 ft 465 kts 141°
2026-04-26 16:07 45.05970 20.01141 39137 ft 465 kts 141°
2026-04-26 16:08 45.01063 20.07098 39133 ft 465 kts 141°
2026-04-26 16:08 44.96149 20.13049 39132 ft 465 kts 141°
2026-04-26 16:09 44.91264 20.18953 39129 ft 465 kts 141°
2026-04-26 16:09 44.86343 20.24885 39128 ft 465 kts 141°
2026-04-26 16:10 44.81423 20.30802 39131 ft 466 kts 141°
2026-04-26 16:10 44.76499 20.36711 39126 ft 466 kts 141°
2026-04-26 16:11 44.71585 20.42593 39128 ft 466 kts 141°
2026-04-26 16:11 44.66647 20.48491 39128 ft 466 kts 141°
2026-04-26 16:12 44.61698 20.54389 39126 ft 467 kts 141°
2026-04-26 16:12 44.54267 20.63218 39122 ft 467 kts 141°
2026-04-26 16:13 44.49340 20.69055 39118 ft 467 kts 141°
2026-04-26 16:13 44.44374 20.74925 39118 ft 467 kts 141°
2026-04-26 16:14 44.39402 20.80788 39117 ft 467 kts 141°
2026-04-26 16:15 44.31943 20.89560 39109 ft 467 kts 141°
2026-04-26 16:15 44.27000 20.95355 39101 ft 467 kts 141°
2026-04-26 16:16 44.19528 21.04091 39096 ft 467 kts 141°
2026-04-26 16:16 44.14549 21.09897 38958 ft 465 kts 141°
2026-04-26 16:17 44.12071 21.12781 38818 ft 465 kts 141°
2026-04-26 16:17 44.09617 21.15633 38690 ft 467 kts 141°
2026-04-26 16:17 44.07123 21.18530 38537 ft 468 kts 141°
2026-04-26 16:17 44.04626 21.21426 38397 ft 467 kts 141°
2026-04-26 16:18 44.02136 21.24311 38254 ft 466 kts 141°
2026-04-26 16:18 43.97160 21.30066 37839 ft 463 kts 141°
2026-04-26 16:19 43.92212 21.35776 36574 ft 463 kts 141°
2026-04-26 16:19 43.89767 21.38592 35890 ft 463 kts 141°
2026-04-26 16:19 43.84805 21.44297 34510 ft 464 kts 141°
2026-04-26 16:20 43.82313 21.47157 33768 ft 465 kts 141°
2026-04-26 16:20 43.77311 21.52890 32144 ft 468 kts 141°
2026-04-26 16:20 43.74800 21.55766 31314 ft 470 kts 141°
2026-04-26 16:21 43.72313 21.58612 30521 ft 471 kts 141°
2026-04-26 16:21 43.69796 21.61504 29807 ft 470 kts 139°
2026-04-26 16:21 43.67510 21.64686 29188 ft 464 kts 130°
2026-04-26 16:21 43.65460 21.68098 28558 ft 459 kts 129°
2026-04-26 16:22 43.63441 21.71488 27946 ft 455 kts 129°
2026-04-26 16:22 43.61440 21.74840 27341 ft 450 kts 129°
2026-04-26 16:22 43.59457 21.78151 26743 ft 447 kts 129°
2026-04-26 16:22 43.57506 21.81397 26155 ft 443 kts 129°
2026-04-26 16:23 43.55547 21.84651 25591 ft 439 kts 129°
2026-04-26 16:23 43.53604 21.87873 25024 ft 436 kts 129°
2026-04-26 16:23 43.51674 21.91068 24464 ft 432 kts 129°
2026-04-26 16:23 43.49758 21.94238 23927 ft 429 kts 129°
2026-04-26 16:24 43.47855 21.97383 23328 ft 426 kts 129°
2026-04-26 16:24 43.45970 22.00493 22757 ft 421 kts 129°
2026-04-26 16:24 43.44101 22.03575 22155 ft 418 kts 129°
2026-04-26 16:24 43.42244 22.06633 21553 ft 415 kts 129°
2026-04-26 16:25 43.40427 22.09624 20989 ft 411 kts 129°
2026-04-26 16:25 43.38599 22.12629 20433 ft 408 kts 129°
2026-04-26 16:25 43.36783 22.15610 19901 ft 405 kts 129°
2026-04-26 16:25 43.34983 22.18564 19374 ft 403 kts 129°
2026-04-26 16:26 43.33179 22.21521 18851 ft 402 kts 129°
2026-04-26 16:26 43.31388 22.24453 18323 ft 399 kts 129°
2026-04-26 16:26 43.29610 22.27359 17754 ft 396 kts 129°
2026-04-26 16:26 43.27842 22.30248 17173 ft 394 kts 129°
2026-04-26 16:27 43.26110 22.33076 16613 ft 391 kts 129°
2026-04-26 16:27 43.24367 22.35918 16055 ft 388 kts 129°
2026-04-26 16:27 43.22635 22.38740 15517 ft 385 kts 129°
2026-04-26 16:27 43.20911 22.41545 14989 ft 383 kts 129°
2026-04-26 16:28 43.19198 22.44333 14456 ft 381 kts 129°
2026-04-26 16:28 43.17496 22.47098 13938 ft 379 kts 129°
2026-04-26 16:28 43.15800 22.49849 13381 ft 376 kts 129°
2026-04-26 16:28 43.14135 22.52548 13126 ft 366 kts 129°
2026-04-26 16:29 43.12482 22.55224 13066 ft 371 kts 129°
2026-04-26 16:29 43.10837 22.57889 13060 ft 371 kts 129°
2026-04-26 16:29 43.09220 22.60634 13060 ft 370 kts 124°
2026-04-26 16:29 43.07822 22.63574 13063 ft 370 kts 120°
2026-04-26 16:30 43.06495 22.66594 13065 ft 370 kts 120°
2026-04-26 16:30 43.05163 22.69611 13063 ft 370 kts 120°
2026-04-26 16:30 43.03810 22.72601 13054 ft 370 kts 121°
2026-04-26 16:30 43.02435 22.75576 13066 ft 371 kts 121°
2026-04-26 16:31 43.01045 22.78552 13062 ft 371 kts 121°
2026-04-26 16:31 42.99652 22.81514 13056 ft 370 kts 121°
2026-04-26 16:31 42.98279 22.84428 13041 ft 370 kts 122°
2026-04-26 16:31 42.96888 22.87374 12923 ft 368 kts 122°
2026-04-26 16:32 42.95504 22.90303 12586 ft 365 kts 122°
2026-04-26 16:32 42.94575 22.92269 12249 ft 364 kts 122°
2026-04-26 16:32 42.92763 22.96104 11569 ft 361 kts 122°
2026-04-26 16:32 42.91409 22.98968 11097 ft 358 kts 122°
2026-04-26 16:33 42.90061 23.01815 10627 ft 355 kts 122°
2026-04-26 16:33 42.88738 23.04607 10327 ft 347 kts 122°
2026-04-26 16:33 42.87447 23.07327 10227 ft 333 kts 122°
2026-04-26 16:33 42.86215 23.09922 10124 ft 320 kts 122°
2026-04-26 16:34 42.85028 23.12418 9976 ft 308 kts 122°
2026-04-26 16:34 42.83888 23.14814 9650 ft 304 kts 123°
2026-04-26 16:34 42.82741 23.17222 9257 ft 303 kts 123°
2026-04-26 16:34 42.81600 23.19615 8885 ft 300 kts 123°
2026-04-26 16:35 42.80467 23.21992 8513 ft 298 kts 123°
2026-04-26 16:35 42.79341 23.24350 8140 ft 296 kts 123°
2026-04-26 16:35 42.78219 23.26698 7793 ft 294 kts 123°
2026-04-26 16:35 42.77128 23.28976 7685 ft 281 kts 123°
2026-04-26 16:36 42.76081 23.31164 7591 ft 270 kts 123°
2026-04-26 16:36 42.75079 23.33259 7499 ft 259 kts 123°
2026-04-26 16:36 42.74116 23.35268 7346 ft 249 kts 123°
2026-04-26 16:36 42.73191 23.37197 7037 ft 247 kts 123°
2026-04-26 16:37 42.72253 23.39153 6687 ft 247 kts 123°
2026-04-26 16:37 42.71316 23.41105 6364 ft 245 kts 123°
2026-04-26 16:37 42.70388 23.43035 6044 ft 243 kts 122°
2026-04-26 16:37 42.69489 23.44902 5903 ft 227 kts 123°
2026-04-26 16:38 42.68621 23.46710 5373 ft 229 kts 123°
2026-04-26 16:38 42.67774 23.48464 5090 ft 216 kts 122°
2026-04-26 16:38 42.66919 23.50238 5034 ft 230 kts 122°
2026-04-26 16:38 42.66042 23.52062 5029 ft 231 kts 122°
2026-04-26 16:39 42.65178 23.53852 5026 ft 230 kts 122°
2026-04-26 16:39 42.64300 23.55670 5026 ft 229 kts 122°
2026-04-26 16:39 42.63422 23.57488 5024 ft 231 kts 122°
2026-04-26 16:39 42.62543 23.59309 5023 ft 230 kts 122°
2026-04-26 16:40 42.61803 23.61208 5017 ft 227 kts 102°
2026-04-26 16:40 42.61841 23.63314 5024 ft 225 kts 68°
2026-04-26 16:40 42.62693 23.64989 5018 ft 213 kts 33°
2026-04-26 16:40 42.64006 23.65646 5023 ft 206 kts
2026-04-26 16:41 42.65451 23.65679 5013 ft 207 kts 358°
2026-04-26 16:41 42.66852 23.65407 5019 ft 203 kts 335°
2026-04-26 16:41 42.67927 23.64247 5005 ft 200 kts 306°
2026-04-26 16:41 42.68376 23.62533 4934 ft 189 kts 277°
2026-04-26 16:42 42.68462 23.60840 4717 ft 173 kts 277°
2026-04-26 16:42 42.68553 23.59225 4241 ft 173 kts 277°
2026-04-26 16:42 42.68661 23.57555 3566 ft 182 kts 277°
2026-04-26 16:42 42.68781 23.55921 3402 ft 164 kts 278°
2026-04-26 16:43 42.68884 23.54455 3271 ft 150 kts 278°
2026-04-26 16:43 42.68970 23.53085 3085 ft 140 kts 278°
2026-04-26 16:43 42.69052 23.51770 2919 ft 142 kts 277°
2026-04-26 16:43 42.69129 23.50461 2740 ft 141 kts 276°
2026-04-26 16:44 42.69205 23.49164 2547 ft 131 kts 277°
2026-04-26 16:44 42.69277 23.47957 2379 ft 131 kts 277°
2026-04-26 16:44 42.69350 23.46722 2198 ft 127 kts 277°
2026-04-26 16:44 42.69421 23.45527 2021 ft 130 kts 277°
2026-04-26 16:45 42.69490 23.44346 1852 ft 120 kts 277°
2026-04-26 16:45 42.69565 23.43239 1753 ft 97 kts 275°
2026-04-26 16:45 42.69590 23.42705 1752 ft 33 kts 274°
2026-04-26 16:45 42.69563 23.42599 1751 ft 6 kts 160°
2026-04-26 16:46 42.69555 23.42605 1751 ft 1 kts 160°
2026-04-26 16:46 42.69528 23.42609 1749 ft 6 kts 175°
2026-04-26 16:46 42.69509 23.42608 1751 ft 2 kts 184°
2026-04-26 16:46 42.69492 23.42608 1742 ft 9 kts 181°
2026-04-26 16:47 42.69451 23.42608 1743 ft 1 kts 178°
2026-04-26 16:47 42.69448 23.42609 1744 ft 0 kts 178°
2026-04-26 16:48 42.69433 23.42602 1746 ft 8 kts 211°
2026-04-26 16:48 42.69413 23.42507 1748 ft 12 kts 273°
2026-04-26 16:48 42.69419 23.42379 1749 ft 15 kts 274°
2026-04-26 16:48 42.69428 23.42236 1751 ft 15 kts 277°
2026-04-26 16:49 42.69442 23.42085 1750 ft 17 kts 277°
2026-04-26 16:49 42.69454 23.41924 1746 ft 18 kts 272°
2026-04-26 16:49 42.69459 23.41774 1750 ft 16 kts 274°
2026-04-26 16:49 42.69465 23.41629 1744 ft 16 kts 273°
2026-04-26 16:50 42.69474 23.41482 1750 ft 16 kts 276°
2026-04-26 16:50 42.69483 23.41331 1748 ft 16 kts 274°
2026-04-26 16:50 42.69446 23.41219 1749 ft 14 kts 208°
2026-04-26 16:50 42.69381 23.41189 1749 ft 6 kts 187°
2026-04-26 16:51 42.69332 23.41180 1749 ft 8 kts 189°
2026-04-26 16:51 42.69300 23.41173 1749 ft 1 kts 193°
2026-04-26 16:51 42.69293 23.41170 1749 ft 0 kts 193°
2026-04-26 16:51 42.69263 23.41162 1749 ft 8 kts 192°
2026-04-26 16:52 42.69193 23.41164 1740 ft 12 kts 163°
2026-04-26 16:52 42.69140 23.41185 1746 ft 9 kts 162°
2026-04-26 16:52 42.69084 23.41211 1744 ft 1 kts 161°
2026-04-26 16:52 42.69057 23.41223 1741 ft 7 kts 163°
2026-04-26 16:53 42.69034 23.41233 1748 ft 0 kts 162°
2026-04-26 16:53 42.69021 23.41241 1744 ft 6 kts 150°
2026-04-26 16:53 42.68977 23.41293 1749 ft 10 kts 142°
2026-04-26 16:54 42.68968 23.41303 1749 ft 0 kts 140°